This demonstration page uses our WeatherBlox Daily Observations layout. Learn more.

Left ArrowRight Arrow

Hourly Observations for December 25, 2017

Temp ( °F °C ) Dew Point ( °F °C ) Humidity (%) Winds ( mph kmh ) Pressure ( in mb ) Visibility ( mi km ) Precip ( " mm )
12:53 am 00:53 Clear 25 -3.9 18 -7.8 75 75 Calm 30.36 1028 10 16 0.00 0.00
1:53 am 01:53 Clear 24 -4.4 17 -8.3 75 75 E 3 6 30.34 1027 10 16 0.00 0.00
2:53 am 02:53 Clear 25 -3.9 17 -8.3 72 72 E 3 6 30.32 1027 10 16 0.00 0.00
3:53 am 03:53 Clear 26 -3.3 18 -7.8 71 71 ESE 6 9 30.29 1026 10 16 0.00 0.00
4:53 am 04:53 Clear 27 -2.8 18 -7.8 69 69 ESE 6 9 30.27 1025 10 16 0.00 0.00
5:53 am 05:53 Clear 24 -4.4 18 -7.8 77 77 E 6 9 30.26 1025 10 16 0.00 0.00
6:53 am 06:53 Clear 24 -4.4 19 -7.2 81 81 E 6 9 30.24 1024 10 16 0.00 0.00
7:53 am 07:53 Sunny 25 -3.9 20 -6.7 81 81 SE 9 15 30.22 1023 10 16 0.00 0.00
8:53 am 08:53 Sunny 28 -2.2 23 -5 81 81 SE 9 15 30.21 1023 10 16 0.00 0.00
9:53 am 09:53 Sunny 33 0.6 26 -3.3 75 75 SE 10 17 30.20 1023 10 16 0.00 0.00
10:53 am 10:53 Sunny 39 3.9 27 -2.8 62 62 ESE 7 11 30.19 1022 10 16 0.00 0.00
11:53 am 11:53 Sunny 43 6.1 28 -2.2 56 56 SE 8 13 30.14 1021 10 16 0.00 0.00
12:53 pm 12:53 Sunny 50 10 29 -1.7 44 44 SE 12 19 30.07 1018 10 16 0.00 0.00
1:53 pm 13:53 Sunny 55 12.8 29 -1.7 37 37 SSE 7 11 30.02 1017 10 16 0.00 0.00
2:53 pm 14:53 Sunny 59 15 28 -2.2 31 31 VRB 5 7 29.99 1016 10 16 0.00 0.00
3:53 pm 15:53 Sunny 61 16.1 28 -2.2 29 29 SSE 10 17 29.98 1015 10 16 0.00 0.00
4:53 pm 16:53 Sunny 62 16.7 29 -1.7 29 29 S 6 9 29.97 1015 10 16 0.00 0.00
5:53 pm 17:53 Sunny 57 13.9 29 -1.7 34 34 SE 8 13 29.99 1016 10 16 0.00 0.00
6:53 pm 18:53 Clear 50 10 31 -0.6 48 48 SSE 10 17 30.02 1017 10 16 0.00 0.00
7:53 pm 19:53 Clear 48 8.9 32 0 54 54 SSE 9 15 30.01 1016 10 16 0.00 0.00
8:53 pm 20:53 Clear 44 6.7 32 0 63 63 E 7 11 30.03 1017 10 16 0.00 0.00
9:53 pm 21:53 Clear 44 6.7 33 0.6 65 65 SE 7 11 30.02 1017 10 16 0.00 0.00
10:53 pm 22:53 Clear 42 5.6 33 0.6 71 71 SE 7 11 30.02 1017 10 16 0.00 0.00
11:53 pm 23:53 Clear 40 4.4 33 0.6 77 77 SE 8 13 30.01 1016 10 16 0.00 0.00

Powered by AerisWeather